Regional Weather Roundup
Issued by NWS State College, PA

Home | Current Version | Previous Version | Graphics & Text | Print | Product List | Glossary Off
Versions: 1 2 3 4 5 6 7 8 9 10 11 12 13 14 15 16 17 18 19 20 21 22 23 24 25 26 27 28 29 30 31 32 33 34 35 36 37 38 39 40 41 42 43 44 45 46 47 48 49 50

000
ASUS41 KCTP 261510
RWRCTP

REGIONAL WEATHER ROUNDUP
NATIONAL WEATHER SERVICE STATE COLLEGE PA
1100 AM EDT THU MAR 26 2015

Note: "fair" indicates few or no clouds below 12,000 feet with no
significant weather and/or obstructions to visibility.

* = STATION THAT DOES NOT REPORT PRECIPITATION /E.G. RAIN...SNOW...ETC/
    THUNDER OR FOG.

PAZ002>004-007>009-013>016-020>023-029>032-261600-
WESTERN PENNSYLVANIA

CITY           SKY/WX    TMP DP  RH WIND       PRES   REMARKS
ERIE           LGT RAIN  36  33  89 N5        29.84F FOG
MEADVILLE      LGT RAIN  37  35  92 NE8       29.80S FOG
FRANKLIN*      CLOUDY    39  36  87 N3        29.81R
NEW CASTLE     LGT RAIN  39  39 100 NW5       29.82S FOG
BEAVER COUNTY  DRIZZLE   41  41 100 N7        29.79S
BUTLER*        CLOUDY    43  43 100 N8        29.79S
PITTSBURGH INT DRIZZLE   45  43  93 NW8       29.77F FOG
PITTSBURGH     CLOUDY    50  42  74 N6        29.74F
INDIANA*       CLOUDY    46  45  93 VRB3      29.78F
LATROBE        PTSUNNY   57  52  82 W7        29.76S
WASHINGTON CO* CLOUDY    52  45  76 NW3       29.79S
$$

PAZ004>006-010>012-017>019-024>028-033>037-041-042-045-046-049>053-261600-
CENTRAL PENNSYLVANIA

CITY           SKY/WX    TMP DP  RH WIND       PRES   REMARKS
BRADFORD       LGT RAIN  38  37  97 N7        29.77F FOG
DUBOIS         CLOUDY    40  38  93 N5        29.76F FOG
CLEARFIELD     CLOUDY    37  35  92 N9        29.77S FOG
JOHNSTOWN      LGT RAIN  57  49  74 SW15G23   29.74F
ALTOONA        PTSUNNY   54  44  69 VRB3      29.78F
STATE COLLEGE  CLOUDY    43  37  81 CALM      29.80F FOG
WILLIAMSPORT   CLOUDY    42  34  73 NE9       29.82F
SELINSGROVE    CLOUDY    43  36  76 CALM      29.84F HAZE
FT INDIANTOWN  DRIZZLE   43  38  83 E3        29.87F
CAPITAL CITY   CLOUDY    43  37  79 E5        29.87F HAZE
HARRISBURG     CLOUDY    43  36  76 S5        29.87F HAZE
YORK           CLOUDY    47  40  76 VRB5      29.86F
$$

PAZ038>040-043-044-047-048-054-055-060>062-067>071-261600-
EASTERN PENNSYLVANIA

CITY           SKY/WX    TMP DP  RH WIND       PRES   REMARKS
SCRANTON       CLOUDY    45  37  73 N5        29.82F HAZE
MOUNT POCONO   FOG       45  43  93 VRB6      29.83F VSB 3/4
ALLENTOWN      CLOUDY    42  38  85 E5        29.89F FOG
QUAKERTOWN*    CLOUDY    48  41  76 CALM      29.89F
READING        LGT RAIN  42  36  79 NW3       29.88F
LANCASTER      CLOUDY    48  42  80 E3        29.87F HAZE
COATESVILLE    CLOUDY    54  50  87 S8G16     29.89F FOG
POTTSTOWN      CLOUDY    49  44  83 CALM      29.90F
BLUE BELL      CLOUDY    52  46  82 SW5       29.88F
DOYLESTOWN     CLOUDY    46  43  89 SW5       29.89F
WILLOW GROVE   NOT AVBL
NORTH PHILA    CLOUDY    52  46  80 SW3       29.91F HAZE
PHILADELPHIA   HVY RAIN  51  47  86 SW3       29.92R VSB 3/4
$$



USA.gov is the U.S. government's official web portal to all federal, state and local government web resources and services.